Fort Campbell, KY

12:23 PM CST on November 18, 2017 (GMT -0600)
Campbell Army Air Field

Weather History for KHOP - September, 2013

Change the Weather History Date:

Tuesday, September 17, 2013

  Actual Average Record
Temperature  
Mean Temperature 70 °F -  
Max Temperature 81 °F 79 °F 88 °F (2017)
Min Temperature 60 °F 57 °F 44 °F (2000)
Cooling Degree Days 6    
Growing Degree Days 20 (Base 50)    
Moisture  
Dew Point 63 °F    
Average Humidity 82    
Maximum Humidity 100    
Minimum Humidity 52    
Precipitation  
Precipitation 0.00 in - - ()
Sea Level Pressure  
Sea Level Pressure 30.15 in    
Wind  
Wind Speed 5 mph (ENE)    
Max Wind Speed 8 mph    
Max Gust Speed -    
Visibility 10 miles    
Events      
Averages and records for this station are not official NWS values.
T = Trace of Precipitation, MM = Missing Value Source: NWS Daily Summary

Daily Weather History Graph

Daily Weather History Graph

Search for Another Location

Airport or City:

Trip Planner

Search our weather history database for the weather conditions in past years. The results will help you decide how hot, cold, wet, or windy it might be!

Date:

Astronomy

Sep. 17, 2013 Rise Set
Actual Time 6:34 AM CDT 6:54 PM CDT
Civil Twilight 6:08 AM CDT 7:19 PM CDT
Nautical Twilight 5:37 AM CDT 7:50 PM CDT
Astronomical Twilight 5:06 AM CDT 8:20 PM CDT
Moon 5:39 PM CDT (9/17) 4:30 AM CDT (9/17)
Length of Visible Light 13h 11m
Length of Day
12h 19m
Waxing Gibbous, 96% of the Moon is Illuminated
Sep 17
Waxing Gibbous
Sep 19
Full
Sep 26
Last Quarter
Oct 4
New
Oct 11
First Quarter

Hourly Weather History & Observations

Time (CDT) Temp. Heat Index Dew Point Humidity Pressure Visibility Wind Dir Wind Speed Gust Speed Precip Events Conditions
12:58 AM 62.6 °F - 62.6 °F 100% 30.19 in 10.0 mi NNE 4.6 mph - N/A   Overcast
1:58 AM 64.0 °F - 64.0 °F 100% 30.19 in 10.0 mi NE 5.8 mph - N/A   Overcast
2:58 AM 62.8 °F - 62.8 °F 100% 30.18 in 10.0 mi NE 5.8 mph - N/A   Clear
3:58 AM 61.9 °F - 61.9 °F 100% 30.17 in 10.0 mi NE 5.8 mph - N/A   Clear
4:58 AM 61.9 °F - 61.9 °F 100% 30.18 in 9.0 mi NNE 4.6 mph - N/A   Mostly Cloudy
5:58 AM 61.2 °F - 61.2 °F 100% 30.18 in 10.0 mi NE 5.8 mph - N/A   Mostly Cloudy
6:58 AM 60.6 °F - 60.6 °F 100% 30.20 in 7.0 mi ENE 5.8 mph - N/A   Scattered Clouds
7:58 AM 62.2 °F - 62.2 °F 100% 30.21 in 10.0 mi ENE 6.9 mph - N/A   Clear
8:58 AM 63.9 °F - 63.9 °F 100% 30.21 in 10.0 mi Variable 5.8 mph - N/A   Clear
9:58 AM 67.8 °F - 63.7 °F 87% 30.22 in 10.0 mi Variable 5.8 mph - N/A   Clear
10:58 AM 72.3 °F - 64.2 °F 76% 30.21 in 10.0 mi East 5.8 mph - N/A   Clear
11:58 AM 75.9 °F - 63.7 °F 66% 30.19 in 10.0 mi East 4.6 mph - N/A   Clear
12:58 PM 78.8 °F - 64.0 °F 60% 30.17 in 10.0 mi Variable 6.9 mph - N/A   Partly Cloudy
1:58 PM 79.0 °F - 62.6 °F 57% 30.14 in 10.0 mi ENE 8.1 mph - N/A   Scattered Clouds
2:58 PM 81.0 °F 82.2 °F 63.1 °F 54% 30.13 in 10.0 mi East 3.5 mph - N/A   Partly Cloudy
3:58 PM 81.5 °F 82.5 °F 62.1 °F 52% 30.11 in 10.0 mi Variable 5.8 mph - N/A   Partly Cloudy
4:58 PM 80.1 °F 81.2 °F 62.1 °F 54% 30.09 in 10.0 mi East 3.5 mph - N/A   Partly Cloudy
5:58 PM 80.1 °F 81.2 °F 61.9 °F 54% 30.09 in 10.0 mi SSE 3.5 mph - N/A   Clear
6:58 PM 77.0 °F - 64.6 °F 65% 30.10 in 10.0 mi North 1.2 mph - N/A   Partly Cloudy
7:58 PM 72.3 °F - 64.6 °F 77% 30.10 in 10.0 mi NE 5.8 mph - N/A   Mostly Cloudy
8:58 PM 70.7 °F - 64.8 °F 81% 30.11 in 10.0 mi NE 4.6 mph - N/A   Partly Cloudy
9:58 PM 68.5 °F - 65.5 °F 90% 30.12 in 10.0 mi ENE 4.6 mph - N/A   Clear
10:58 PM 69.1 °F - 65.7 °F 89% 30.11 in 10.0 mi East 3.5 mph - N/A   Clear
11:58 PM 67.6 °F - 65.8 °F 94% 30.11 in 10.0 mi East 2.3 mph - N/A   Clear